Regional Weather Roundup
Issued by NWS

Home | Current Version | Previous Version | Graphics & Text | Print | Product List | Glossary On
Versions: 1 2 3 4 5 6 7 8 9 10 11 12 13 14 15 16 17 18 19 20 21 22 23 24 25 26 27 28 29 30 31 32 33 34 35 36 37 38 39 40 41 42 43 44 45 46 47 48 49 50
000
ASUS43 KLSX 240859
RWRMO

WEATHER SUMMARY FOR MISSOURI
NATIONAL WEATHER SERVICE SPRINGFIELD MO
400 AM CDT SAT JUN 24 2017

NOTE: "FAIR" INDICATES FEW OR NO CLOUDS BELOW 12,000 FEET WITH NO
       SIGNIFICANT WEATHER AND/OR OBSTRUCTIONS TO VISIBILITY.
       CURRENT SKY AND/OR WEATHER CONDITIONS ARE NOT AVAILABLE FOR
       CHILLICOTHE AND FARMINGTON.

MOZ001>031-035>038-043-044-053-054-241000-
...NORTHERN AND WESTERN MISSOURI...

CITY           SKY/WX    TMP DP  RH WIND       PRES   REMARKS
KANSAS CTY INT CLEAR     58  55  90 W7        30.12R
KANSAS C DTWN  PTCLDY    64  54  69 NW5       30.11R
LEE`S SUMMIT   CLEAR     62  55  77 W5        30.12R
ST JOSEPH      CLEAR     56  54  93 CALM      30.13R
CHILLICOTHE      N/A     61  53  75 CALM      30.10R
KIRKSVILLE     CLEAR     59  52  77 NW7       30.06S

$$
MOZ066>068-077>081-088>096-101>105-241000-
...SOUTHWEST MISSOURI...

CITY           SKY/WX    TMP DP  RH WIND       PRES   REMARKS
SPRINGFIELD    CLEAR     61  54  77 N7        30.10R
JOPLIN         CLEAR     62  58  86 NE3       30.11S
BRANSON        CLEAR     61  57  88 CALM      30.11S

$$
MOZ032>034-039>042-045>050-055>058-069>072-241000-
...CENTRAL MISSOURI...

CITY           SKY/WX    TMP DP  RH WIND       PRES   REMARKS
COLUMBIA       PTCLDY    60  55  83 W6        30.06S
JEFFERSON CITY CLEAR     62  55  77 CALM      30.06S
ROLLA          CLEAR     59  54  83 W7        30.06R
SEDALIA        PTCLDY    60  57  89 W6        30.10R
WARRENSBURG    CLEAR     59  54  82 W5        30.10R
OSAGE BEACH    CLEAR     62  54  74 NW3       30.09R

$$
MOZ051-052-059>065-241000-
...EAST CENTRAL MISSOURI...

CITY           SKY/WX    TMP DP  RH WIND       PRES   REMARKS
ST LOUIS INTL  PTCLDY    66  55  67 NW5       30.01R
SPIRIT OF STL  CLEAR     62  57  83 SW6       30.01S
ST CHARLES     PTCLDY    67  56  67 NW12      29.99F

$$
MOZ072>076-082>087-097>100-106>115-241000-
...SOUTH CENTRAL AND SOUTHEAST MISSOURI...

CITY           SKY/WX    TMP DP  RH WIND       PRES   REMARKS
CAPE GIRARDEAU PTCLDY    68  57  68 N9        30.00R
FARMINGTON     CLEAR     59  56  89 W3        30.05R
POPLAR BLUFF   CLOUDY    66  60  81 N7        30.00R
WEST PLAINS    PTCLDY    63  54  72 N6        30.09R

$$




USA.gov is the U.S. government's official web portal to all federal, state and local government web resources and services.